EW0362 Weather Reports


time (UTC)temp
C
wind
direction
speed
KPH
gust
KPH
rain 1hr
cm
rain 24hr
cm
rain mn
cm
humidity
%
barometer
mb
20260504180205 21 230 8.0 14.5 0.00 0.00 0.00 32 1006.3
20260504175706 21 242 8.0 14.5 0.00 0.00 0.00 32 1006.4
20260504175205 22 229 8.0 19.3 0.00 0.00 0.00 33 1006.4
20260504174707 21 182 6.4 11.3 0.00 0.00 0.00 33 1006.3
20260504173706 21 231 4.8 12.9 0.00 0.00 0.00 33 1006.4
20260504173205 21 248 4.8 11.3 0.00 0.00 0.00 34 1006.5
20260504172205 21 235 3.2 12.9 0.00 0.00 0.00 35 1006.8
20260504171706 21 245 9.7 19.3 0.00 0.00 0.00 35 1006.8
20260504171205 21 274 4.8 11.3 0.00 0.00 0.00 35 1006.6
20260504160206 19 254 8.0 27.4 0.00 0.00 0.00 37 1007.4
20260504141205 17 202 1.6 11.3 0.00 0.00 0.00 47 1008.4
20260504140205 16 253 4.8 11.3 0.00 0.00 0.00 48 1008.7
20260504130205 13 233 3.2 8.0 0.00 0.00 0.00 54 1009.3
20260504120205 10 258 3.2 9.7 0.00 0.03 0.00 66 1009.9
20260504110705 6 211 0.0 1.6 0.00 0.03 0.00 82 1009.9
20260504100205 6 257 0.0 0.0 0.00 0.03 0.00 81 1010.0
20260504081705 5 257 0.0 0.0 0.00 0.03 0.00 87 1009.9
20260504080205 5 257 0.0 0.0 0.00 0.03 0.00 88 1009.9
20260504070206 3 257 0.0 0.0 0.00 0.03 0.00 89 1009.8
20260504050205 1 257 0.0 0.0 0.00 0.03 0.00 88 1009.9
20260504043705 1 257 0.0 0.0 0.00 0.03 0.00 86 1009.9
20260504042704 1 257 0.0 0.0 0.00 0.03 0.00 86 1009.9
20260504042205 1 257 0.0 0.0 0.00 0.03 0.00 86 1009.9
20260504041704 1 257 0.0 0.0 0.00 0.03 0.00 85 1009.9
20260504040705 1 257 0.0 0.0 0.00 0.03 0.00 85 1009.8
20260504040206 1 257 0.0 0.0 0.00 0.03 0.00 85 1009.7
20260504035704 1 257 0.0 0.0 0.00 0.03 0.03 84 1009.7
20260504035205 1 257 0.0 0.0 0.00 0.03 0.03 84 1009.7
20260504034705 2 257 0.0 0.0 0.00 0.03 0.03 84 1009.6
20260504033204 2 257 0.0 0.0 0.00 0.03 0.03 82 1009.6
20260504031705 2 257 0.0 0.0 0.00 0.03 0.03 82 1009.5
20260504030704 2 257 0.0 0.0 0.00 0.03 0.03 81 1009.6
20260504030205 2 257 0.0 0.0 0.00 0.03 0.03 80 1009.6
20260504025205 3 257 0.0 0.0 0.00 0.03 0.03 79 1009.6
20260504024204 3 257 0.0 0.0 0.00 0.03 0.03 78 1009.5
20260504023705 3 257 0.0 0.0 0.00 0.03 0.03 78 1009.4
20260504022705 3 257 0.0 0.0 0.00 0.03 0.03 76 1009.5
20260504022206 3 257 0.0 0.0 0.00 0.03 0.03 76 1009.4
20260504014204 5 257 0.0 0.0 0.00 0.03 0.03 69 1009.1
20260504013705 5 257 0.0 0.0 0.00 0.03 0.03 68 1009.1
20260504012706 6 257 0.0 0.0 0.00 0.03 0.03 67 1009.0
20260504011705 6 257 0.0 0.0 0.00 0.03 0.03 65 1009.0
20260504010705 6 257 0.0 0.0 0.00 0.03 0.03 65 1008.8
20260504010204 7 257 0.0 0.0 0.00 0.03 0.03 62 1008.8
20260504005704 7 257 0.0 0.0 0.00 0.03 0.03 62 1008.7
20260504004704 7 257 0.0 0.0 0.00 0.03 0.03 60 1008.6
20260504004205 7 257 0.0 0.0 0.00 0.03 0.03 60 1008.5
20260504003705 8 257 0.0 0.0 0.00 0.03 0.03 59 1008.4
20260504003204 8 257 0.0 0.0 0.00 0.03 0.03 60 1008.4
20260504001705 8 257 0.0 0.0 0.00 0.03 0.03 56 1008.2
20260504001205 9 257 0.0 0.0 0.00 0.03 0.03 53 1008.2
20260504000205 9 257 0.0 0.0 0.00 0.03 0.03 53 1008.1
20260503235205 10 257 0.0 0.0 0.00 0.03 0.03 51 1007.9
20260503234205 10 258 3.2 4.8 0.00 0.03 0.03 50 1007.8
20260503233205 10 277 1.6 4.8 0.00 0.03 0.03 49 1007.7
20260503232205 10 293 1.6 8.0 0.00 0.03 0.03 50 1007.6
20260503231704 10 282 1.6 4.8 0.00 0.03 0.03 48 1007.5
20260503231205 11 264 3.2 12.9 0.00 0.03 0.03 47 1007.5
20260503230204 11 280 3.2 11.3 0.00 0.03 0.03 46 1007.3
20260503225705 11 252 3.2 4.8 0.00 0.03 0.03 46 1007.3
20260503224704 11 285 3.2 14.5 0.00 0.03 0.03 45 1007.3
20260503223706 11 294 3.2 14.5 0.00 0.03 0.03 44 1007.1
20260503221705 11 350 4.8 16.1 0.00 0.03 0.03 44 1006.8
20260503221205 11 274 4.8 11.3 0.00 0.03 0.03 45 1006.8
20260503220705 11 212 3.2 8.0 0.00 0.03 0.03 46 1006.8
20260503220205 11 287 3.2 11.3 0.00 0.03 0.03 45 1006.7
20260503215704 11 268 4.8 12.9 0.00 0.05 0.03 46 1006.7
20260503215205 11 268 4.8 9.7 0.00 0.05 0.03 44 1006.6
20260503214704 11 280 4.8 12.9 0.00 0.05 0.03 44 1006.7
20260503213204 11 265 4.8 8.0 0.00 0.05 0.03 46 1006.5
20260503212704 11 262 4.8 14.5 0.00 0.08 0.03 44 1006.4
20260503205204 11 268 3.2 11.3 0.00 0.10 0.03 44 1006.1
20260503204204 12 309 8.0 16.1 0.00 0.10 0.03 43 1006.0
20260503203705 12 264 4.8 20.9 0.00 0.10 0.03 43 1005.9
20260503203204 12 256 3.2 14.5 0.00 0.10 0.03 43 1005.7
20260503202204 12 290 8.0 19.3 0.00 0.10 0.03 42 1005.6
20260503201704 12 292 4.8 16.1 0.00 0.10 0.03 42 1005.6
20260503201205 12 293 3.2 11.3 0.00 0.10 0.03 44 1005.6
20260503200204 12 277 8.0 16.1 0.00 0.10 0.03 43 1005.6
20260503195705 12 352 3.2 19.3 0.00 0.10 0.03 46 1005.7
20260503195204 12 274 4.8 12.9 0.00 0.10 0.03 46 1005.6
20260503194204 12 296 4.8 9.7 0.00 0.10 0.03 47 1005.6
20260503193705 12 329 6.4 14.5 0.00 0.10 0.03 46 1005.6
20260503192704 12 330 6.4 19.3 0.00 0.10 0.03 47 1005.7
20260503191704 12 324 3.2 12.9 0.00 0.10 0.03 48 1005.8
20260503190704 12 283 3.2 11.3 0.00 0.10 0.03 50 1005.7
20260503190205 12 274 4.8 9.7 0.00 0.10 0.03 49 1005.7
20260503185704 12 293 3.2 14.5 0.00 0.10 0.03 48 1005.7
20260503184705 12 345 8.0 14.5 0.00 0.10 0.03 47 1005.7
20260503184204 12 277 6.4 12.9 0.00 0.10 0.03 50 1005.7